Location: Kosice
(48.7167°N, 21.2500°E)
Time: 09:12:02
(UTC+01:00)

ISS - Pass Details

Date: 26 January 2021
Orbit: 417 x 422 km, 51.6° (Epoch: 05 March)

Event Time Altitude Azimuth Distance (km) Brightness Sun altitude
Rises 17:09:16 0° 254° (WSW) 2,367 2.6 -7.7°
Reaches altitude 10° 17:11:22 10° 256° (WSW) 1,505 0.8 -8.1°
Maximum altitude 17:14:44 74° 341° (NNW) 443 -3.7 -8.6°
Enters shadow 17:17:44 13° 68° (ENE) 1,349 -1.9 -9.1°
